Location: Newark
(45.4041°N, 17.9426°E)
Time: 02:37:56
(UTC+00:00)

OTV 5 (USA 277) - Pass Details

Date: 21 October 2019
Orbit: 310 x 324 km, 54.5° (Epoch: 17 October)

Event Time Altitude Azimuth Distance (km) Brightness Sun altitude
Exits shadow 03:48:52 19° 202° (SSW) 859 ? -15.2°
Drops below altitude 10° 03:50:16 10° 174° (S) 1,227 ? -15.0°
Sets 03:52:28 0° 157° (SSE) 2,051 ? -14.6°
